| time (UTC) | temp F | wind direction | speed MPH | gust MPH | rain 1hr in | rain 24hr in | rain mn in | humidity % | barometer mb |
| 20260505035839 | 0 | 337 | 0.0 | 0.0 | 0.00 | 0.00 | 0.00 | 1010.3 | |
| 20260505035334 | 0 | 336 | 0.0 | 0.0 | 0.00 | 0.00 | 0.00 | 1010.1 | |
| 20260505034832 | 0 | 335 | 0.0 | 0.0 | 0.00 | 0.00 | 0.00 | 1010.2 | |
| 20260505034328 | 0 | 335 | 0.0 | 0.0 | 0.00 | 0.00 | 0.00 | 1010.0 | |
| 20260505033826 | 0 | 342 | 0.0 | 0.0 | 0.00 | 0.00 | 0.00 | 1010.2 | |
| 20260505033322 | 0 | 336 | 0.0 | 0.0 | 0.00 | 0.00 | 0.00 | 1010.1 | |
| 20260505032821 | 0 | 336 | 0.0 | 0.0 | 0.00 | 0.00 | 0.00 | 1010.3 | |
| 20260505032316 | 0 | 338 | 0.0 | 1.0 | 0.00 | 0.00 | 0.00 | 1009.9 | |
| 20260505031814 | 0 | 335 | 0.0 | 0.0 | 0.00 | 0.00 | 0.00 | 1010.2 | |
| 20260505031310 | 0 | 332 | 0.0 | 0.0 | 0.00 | 0.00 | 0.00 | 1009.9 | |
| 20260505030808 | 0 | 339 | 0.0 | 0.0 | 0.00 | 0.00 | 0.00 | 1009.7 | |
| 20260505030304 | 0 | 335 | 0.0 | 1.0 | 0.00 | 0.00 | 0.00 | 1009.9 | |
| 20260505025759 | 0 | 332 | 0.0 | 0.0 | 0.00 | 0.00 | 0.00 | 1010.0 | |
| 20260505025257 | 0 | 345 | 0.0 | 0.0 | 0.00 | 0.00 | 0.00 | 1009.9 | |
| 20260505024755 | 0 | 339 | 0.0 | 0.0 | 0.00 | 0.00 | 0.00 | 1009.8 | |
| 20260505024252 | 0 | 5 | 1.0 | 1.0 | 0.00 | 0.00 | 0.00 | 1009.9 | |
| 20260505023750 | 0 | 334 | 0.0 | 0.0 | 0.00 | 0.00 | 0.00 | 1010.0 | |
| 20260505023246 | 0 | 336 | 0.0 | 0.0 | 0.00 | 0.00 | 0.00 | 1009.9 | |
| 20260505022744 | 0 | 329 | 0.0 | 0.0 | 0.00 | 0.00 | 0.00 | 1010.0 | |
| 20260505022241 | 0 | 329 | 0.0 | 2.0 | 0.00 | 0.00 | 0.00 | 1010.0 | |
| 20260505021737 | 0 | 332 | 0.0 | 1.0 | 0.00 | 0.00 | 0.00 | 1010.0 | |
| 20260505021235 | 0 | 344 | 0.0 | 0.0 | 0.00 | 0.00 | 0.00 | 1010.0 | |
| 20260505020730 | 0 | 335 | 0.0 | 1.0 | 0.00 | 0.00 | 0.00 | 1010.0 | |
| 20260505020225 | 0 | 339 | 0.0 | 1.0 | 0.00 | 0.00 | 0.00 | 1009.8 | |
| 20260505015723 | 0 | 334 | 0.0 | 1.0 | 0.00 | 0.00 | 0.00 | 1010.0 | |
| 20260505015220 | 0 | 332 | 1.0 | 1.0 | 0.00 | 0.00 | 0.00 | 1010.1 | |
| 20260505014717 | 0 | 337 | 0.0 | 1.0 | 0.00 | 0.00 | 0.00 | 1010.1 | |
| 20260505014214 | 0 | 334 | 0.0 | 0.0 | 0.00 | 0.00 | 0.00 | 1010.2 | |
| 20260505013711 | 0 | 330 | 0.0 | 0.0 | 0.00 | 0.00 | 0.00 | 1010.1 | |
| 20260505013208 | 0 | 342 | 0.0 | 1.0 | 0.00 | 0.00 | 0.00 | 1010.3 | |
| 20260505012706 | 0 | 336 | 0.0 | 1.0 | 0.00 | 0.00 | 0.00 | 1010.4 | |
| 20260505012203 | 0 | 334 | 0.0 | 2.0 | 0.00 | 0.00 | 0.00 | 1010.3 | |
| 20260505011659 | 0 | 335 | 1.0 | 1.0 | 0.00 | 0.00 | 0.00 | 1010.4 | |
| 20260505011156 | 0 | 338 | 0.0 | 2.0 | 0.00 | 0.00 | 0.00 | 1010.4 | |
| 20260505010651 | 0 | 337 | 1.0 | 3.0 | 0.00 | 0.00 | 0.00 | 1010.5 | |
| 20260505010148 | 0 | 338 | 0.0 | 2.0 | 0.00 | 0.00 | 0.00 | 1010.4 | |
| 20260505005644 | 0 | 332 | 0.0 | 1.0 | 0.00 | 0.00 | 0.00 | 1010.6 | |
| 20260505005142 | 0 | 334 | 1.0 | 1.0 | 0.00 | 0.00 | 0.00 | 1010.6 | |
| 20260505004639 | 0 | 351 | 1.0 | 2.0 | 0.00 | 0.00 | 0.00 | 1010.5 | |
| 20260505004135 | 0 | 338 | 1.0 | 2.0 | 0.00 | 0.00 | 0.00 | 1010.5 | |
| 20260505003632 | 0 | 335 | 1.0 | 1.0 | 0.00 | 0.00 | 0.00 | 1010.5 | |
| 20260505003130 | 0 | 334 | 1.0 | 1.0 | 0.00 | 0.00 | 0.00 | 1010.4 | |
| 20260505002626 | 0 | 328 | 1.0 | 1.0 | 0.00 | 0.00 | 0.00 | 1010.5 | |
| 20260505002124 | 0 | 339 | 1.0 | 1.0 | 0.00 | 0.00 | 0.00 | 1010.6 | |
| 20260505001621 | 0 | 334 | 1.0 | 1.0 | 0.00 | 0.00 | 0.00 | 1010.6 | |
| 20260505001119 | 0 | 339 | 1.0 | 2.0 | 0.00 | 0.00 | 0.00 | 1010.4 | |
| 20260505000615 | 0 | 330 | 1.0 | 2.0 | 0.00 | 0.00 | 0.00 | 1010.6 | |
| 20260505000114 | 0 | 328 | 2.0 | 2.0 | 0.00 | 0.00 | 0.00 | 1010.5 | |
| 20260504235609 | 0 | 338 | 1.0 | 2.0 | 0.00 | 0.00 | 0.00 | 1010.3 | |
| 20260504235106 | 0 | 297 | 1.0 | 3.0 | 0.00 | 0.00 | 0.00 | 1010.5 | |
| 20260504234603 | 0 | 336 | 1.0 | 3.0 | 0.00 | 0.00 | 0.00 | 1010.5 | |
| 20260504234101 | 0 | 336 | 1.0 | 3.0 | 0.00 | 0.00 | 0.00 | 1010.4 | |
| 20260504233556 | 0 | 338 | 1.0 | 2.0 | 0.00 | 0.00 | 0.00 | 1010.8 | |
| 20260504233052 | 0 | 335 | 1.0 | 2.0 | 0.00 | 0.00 | 0.00 | 1010.6 | |
| 20260504232550 | 0 | 344 | 1.0 | 2.0 | 0.00 | 0.00 | 0.00 | 1010.4 | |
| 20260504232047 | 0 | 339 | 1.0 | 2.0 | 0.00 | 0.00 | 0.00 | 1010.4 | |
| 20260504231544 | 0 | 340 | 2.0 | 5.0 | 0.00 | 0.00 | 0.00 | 1010.5 | |
| 20260504231040 | 0 | 332 | 1.0 | 2.0 | 0.00 | 0.00 | 0.00 | 1010.5 | |
| 20260504230536 | 0 | 329 | 2.0 | 3.0 | 0.00 | 0.00 | 0.00 | 1010.4 | |
| 20260504230035 | 0 | 336 | 1.0 | 2.0 | 0.00 | 0.00 | 0.00 | 1010.5 | |
| 20260504225532 | 0 | 331 | 2.0 | 2.0 | 0.00 | 0.00 | 0.00 | 1010.6 | |
| 20260504225029 | 0 | 340 | 1.0 | 5.0 | 0.00 | 0.00 | 0.00 | 1010.6 | |
| 20260504224525 | 0 | 150 | 2.0 | 3.0 | 0.00 | 0.00 | 0.00 | 1010.6 | |
| 20260504224023 | 0 | 337 | 1.0 | 2.0 | 0.00 | 0.00 | 0.00 | 1010.7 | |
| 20260504223519 | 0 | 343 | 1.0 | 2.0 | 0.00 | 0.00 | 0.00 | 1010.6 | |
| 20260504223015 | 0 | 330 | 1.0 | 2.0 | 0.00 | 0.00 | 0.00 | 1010.6 | |
| 20260504222512 | 0 | 343 | 2.0 | 3.0 | 0.00 | 0.00 | 0.00 | 1010.8 | |
| 20260504222010 | 0 | 324 | 1.0 | 2.0 | 0.00 | 0.00 | 0.00 | 1010.7 | |
| 20260504221507 | 0 | 336 | 1.0 | 3.0 | 0.00 | 0.00 | 0.00 | 1010.8 | |
| 20260504221004 | 0 | 347 | 2.0 | 2.0 | 0.00 | 0.00 | 0.00 | 1010.7 | |
| 20260504220500 | 0 | 328 | 1.0 | 2.0 | 0.00 | 0.00 | 0.00 | 1010.7 | |
| 20260504215957 | 0 | 328 | 1.0 | 3.0 | 0.00 | 0.00 | 0.00 | 1010.8 | |
| 20260504215454 | 0 | 332 | 1.0 | 2.0 | 0.00 | 0.00 | 0.00 | 1011.0 | |
| 20260504214950 | 0 | 325 | 2.0 | 3.0 | 0.00 | 0.00 | 0.00 | 1010.8 | |
| 20260504214447 | 0 | 337 | 2.0 | 3.0 | 0.00 | 0.00 | 0.00 | 1010.7 | |
| 20260504213943 | 0 | 316 | 2.0 | 2.0 | 0.00 | 0.00 | 0.00 | 1010.9 | |
| 20260504213439 | 0 | 334 | 2.0 | 3.0 | 0.00 | 0.00 | 0.00 | 1010.9 | |
| 20260504212937 | 0 | 333 | 1.0 | 2.0 | 0.00 | 0.00 | 0.00 | 1010.9 | |
| 20260504212432 | 0 | 338 | 2.0 | 3.0 | 0.00 | 0.00 | 0.00 | 1011.0 | |
| 20260504211931 | 0 | 10 | 1.0 | 2.0 | 0.00 | 0.00 | 0.00 | 1010.9 | |
| 20260504211427 | 0 | 337 | 2.0 | 3.0 | 0.00 | 0.00 | 0.00 | 1010.9 | |
| 20260504210924 | 0 | 340 | 1.0 | 2.0 | 0.00 | 0.00 | 0.00 | 1011.0 | |
| 20260504210421 | 0 | 344 | 2.0 | 3.0 | 0.00 | 0.00 | 0.00 | 1011.0 | |
| 20260504205918 | 0 | 331 | 2.0 | 2.0 | 0.00 | 0.00 | 0.00 | 1011.1 | |
| 20260504205416 | 0 | 335 | 3.0 | 3.0 | 0.00 | 0.00 | 0.00 | 1010.9 | |
| 20260504204914 | 0 | 320 | 2.0 | 3.0 | 0.00 | 0.00 | 0.00 | 1010.8 | |
| 20260504204412 | 0 | 308 | 2.0 | 2.0 | 0.00 | 0.00 | 0.00 | 1011.0 | |
| 20260504203911 | 0 | 348 | 1.0 | 2.0 | 0.00 | 0.00 | 0.00 | 1010.8 | |
| 20260504203408 | 0 | 286 | 1.0 | 3.0 | 0.00 | 0.00 | 0.00 | 1010.8 | |
| 20260504202903 | 0 | 336 | 1.0 | 2.0 | 0.00 | 0.00 | 0.00 | 1010.9 | |
| 20260504202400 | 0 | 353 | 1.0 | 2.0 | 0.00 | 0.00 | 0.00 | 1010.9 | |
| 20260504201857 | 0 | 346 | 1.0 | 2.0 | 0.00 | 0.00 | 0.00 | 1010.7 | |
| 20260504201355 | 0 | 327 | 1.0 | 2.0 | 0.00 | 0.00 | 0.00 | 1010.9 | |
| 20260504200852 | 0 | 332 | 2.0 | 5.0 | 0.00 | 0.00 | 0.00 | 1010.7 | |
| 20260504200349 | 0 | 316 | 1.0 | 3.0 | 0.00 | 0.00 | 0.00 | 1011.0 | |
| 20260504195845 | 0 | 346 | 3.0 | 5.0 | 0.00 | 0.00 | 0.00 | 1010.8 | |
| 20260504195340 | 0 | 331 | 2.0 | 3.0 | 0.00 | 0.00 | 0.00 | 1010.9 | |
| 20260504194837 | 0 | 337 | 1.0 | 3.0 | 0.00 | 0.00 | 0.00 | 1010.9 | |
| 20260504194333 | 0 | 15 | 2.0 | 3.0 | 0.00 | 0.00 | 0.00 | 1010.8 | |
| 20260504193829 | 0 | 0 | 2.0 | 3.0 | 0.00 | 0.00 | 0.00 | 1010.9 | |
| 20260504193327 | 0 | 3 | 3.0 | 3.0 | 0.00 | 0.00 | 0.00 | 1010.9 | |
| 20260504192826 | 0 | 286 | 2.0 | 3.0 | 0.00 | 0.00 | 0.00 | 1010.9 | |
| 20260504192323 | 0 | 14 | 2.0 | 3.0 | 0.00 | 0.00 | 0.00 | 1010.9 | |
| 20260504191822 | 0 | 333 | 1.0 | 3.0 | 0.00 | 0.00 | 0.00 | 1010.8 | |
| 20260504191319 | 0 | 330 | 1.0 | 3.0 | 0.00 | 0.00 | 0.00 | 1011.0 | |
| 20260504190814 | 0 | 300 | 2.0 | 3.0 | 0.00 | 0.00 | 0.00 | 1011.1 | |
| 20260504190310 | 0 | 351 | 1.0 | 2.0 | 0.00 | 0.00 | 0.00 | 1010.9 | |
| 20260504185807 | 0 | 338 | 1.0 | 5.0 | 0.00 | 0.00 | 0.00 | 1011.0 | |
| 20260504185305 | 0 | 269 | 2.0 | 2.0 | 0.00 | 0.00 | 0.00 | 1010.9 | |
| 20260504184800 | 0 | 324 | 1.0 | 2.0 | 0.00 | 0.00 | 0.00 | 1010.9 | |
| 20260504184256 | 0 | 322 | 1.0 | 2.0 | 0.00 | 0.00 | 0.00 | 1011.1 | |
| 20260504183752 | 0 | 6 | 1.0 | 3.0 | 0.00 | 0.00 | 0.00 | 1011.0 | |
| 20260504183249 | 0 | 334 | 2.0 | 2.0 | 0.00 | 0.00 | 0.00 | 1010.8 | |
| 20260504182747 | 0 | 334 | 1.0 | 2.0 | 0.00 | 0.00 | 0.00 | 1010.9 | |
| 20260504182244 | 0 | 344 | 1.0 | 2.0 | 0.00 | 0.00 | 0.00 | 1010.8 | |
| 20260504181742 | 0 | 293 | 1.0 | 2.0 | 0.00 | 0.00 | 0.00 | 1010.6 | |
| 20260504181239 | 0 | 333 | 1.0 | 2.0 | 0.00 | 0.00 | 0.00 | 1010.7 | |
| 20260504180738 | 0 | 338 | 2.0 | 2.0 | 0.00 | 0.00 | 0.00 | 1010.8 | |
| 20260504180236 | 0 | 348 | 1.0 | 2.0 | 0.00 | 0.00 | 0.00 | 1010.6 | |
| 20260504175733 | 0 | 354 | 1.0 | 3.0 | 0.00 | 0.00 | 0.00 | 1010.9 | |
| 20260504175230 | 0 | 331 | 2.0 | 2.0 | 0.00 | 0.00 | 0.00 | 1010.7 | |
| 20260504174728 | 0 | 120 | 2.0 | 2.0 | 0.00 | 0.00 | 0.00 | 1011.0 | |
| 20260504174226 | 0 | 1 | 2.0 | 3.0 | 0.00 | 0.00 | 0.00 | 1010.8 | |
| 20260504173722 | 0 | 338 | 2.0 | 5.0 | 0.00 | 0.00 | 0.00 | 1010.9 | |
| 20260504173219 | 0 | 348 | 1.0 | 2.0 | 0.00 | 0.00 | 0.00 | 1010.6 | |
| 20260504172715 | 0 | 357 | 2.0 | 2.0 | 0.00 | 0.00 | 0.00 | 1010.7 | |
| 20260504172212 | 0 | 345 | 1.0 | 3.0 | 0.00 | 0.00 | 0.00 | 1010.5 | |
| 20260504171709 | 0 | 331 | 0.0 | 2.0 | 0.00 | 0.00 | 0.00 | 1010.7 | |
| 20260504171206 | 0 | 340 | 1.0 | 2.0 | 0.00 | 0.00 | 0.00 | 1010.5 | |
| 20260504170702 | 0 | 9 | 1.0 | 2.0 | 0.00 | 0.00 | 0.00 | 1010.5 | |
| 20260504170200 | 0 | 333 | 1.0 | 2.0 | 0.00 | 0.00 | 0.00 | 1010.7 | |
| 20260504160118 | 0 | 353 | 2.0 | 2.0 | 0.00 | 0.00 | 0.00 | 1010.3 | |
| 20260504151045 | 0 | 338 | 1.0 | 2.0 | 0.00 | 0.00 | 0.00 | 1009.9 | |
| 20260504150543 | 0 | 348 | 1.0 | 1.0 | 0.00 | 0.00 | 0.00 | 1010.0 | |
| 20260504141009 | 0 | 340 | 1.0 | 1.0 | 0.00 | 0.00 | 0.00 | 1009.4 | |
| 20260504140505 | 0 | 328 | 0.0 | 0.0 | 0.00 | 0.00 | 0.00 | 1009.5 | |
| 20260504130430 | 0 | 338 | 0.0 | 1.0 | 0.00 | 0.00 | 0.00 | 1009.0 | |
| 20260504110317 | 0 | 338 | 1.0 | 2.0 | 0.00 | 0.00 | 0.00 | 1008.3 | |
| 20260504100234 | 0 | 12 | 1.0 | 3.0 | 0.00 | 0.00 | 0.00 | 1008.1 | |
| 20260504081628 | 0 | 346 | 0.0 | 2.0 | 0.00 | 0.00 | 0.00 | 1007.8 | |
| 20260504081124 | 0 | 357 | 1.0 | 3.0 | 0.00 | 0.00 | 0.00 | 1007.5 | |
| 20260504080621 | 0 | 353 | 1.0 | 2.0 | 0.00 | 0.00 | 0.00 | 1007.6 | |
| 20260504080117 | 0 | 334 | 0.0 | 1.0 | 0.00 | 0.00 | 0.00 | 1007.4 | |
| 20260504050433 | 0 | 336 | 0.0 | 0.0 | 0.00 | 0.00 | 0.00 | 1006.2 | |
| 20260504045930 | 0 | 333 | 0.0 | 0.0 | 0.00 | 0.00 | 0.00 | 1006.1 | |
| 20260504045426 | 0 | 336 | 0.0 | 0.0 | 0.00 | 0.00 | 0.00 | 1006.1 | |
| 20260504044922 | 0 | 335 | 0.0 | 0.0 | 0.00 | 0.00 | 0.00 | 1006.0 | |
| 20260504044420 | 0 | 335 | 0.0 | 0.0 | 0.00 | 0.00 | 0.00 | 1006.0 | |
| 20260504043917 | 0 | 335 | 0.0 | 0.0 | 0.00 | 0.00 | 0.00 | 1005.9 | |
| 20260504043414 | 0 | 335 | 1.0 | 1.0 | 0.00 | 0.00 | 0.00 | 1006.0 | |
| 20260504042912 | 0 | 335 | 0.0 | 2.0 | 0.00 | 0.00 | 0.00 | 1006.0 | |
| 20260504042408 | 0 | 335 | 0.0 | 1.0 | 0.00 | 0.00 | 0.00 | 1005.9 | |
| 20260504041904 | 0 | 336 | 0.0 | 1.0 | 0.00 | 0.00 | 0.00 | 1006.1 | |
| 20260504041401 | 0 | 339 | 1.0 | 2.0 | 0.00 | 0.00 | 0.00 | 1006.0 | |
| 20260504040856 | 0 | 335 | 0.0 | 1.0 | 0.00 | 0.00 | 0.00 | 1006.0 | |
| 20260504040354 | 0 | 335 | 1.0 | 1.0 | 0.00 | 0.00 | 0.00 | 1006.0 |